Retour au catalogue

COSMOS 1247 DEB

LostHEO
NORAD 28269·DEBRIS·🇷🇺 Russia

Lancé Feb 19, 1981 depuis Plesetsk Cosmodrome

Loading…

Prochains Passages (prochaines 24 heures)

TLE

PériméSource: Space-Track

Époque: Feb 12, 2023, 03:43 UTC

1 28269U 81016K   23043.15539108 -.00000385  00000-0  00000+0 0  9993
2 28269  66.7323  92.1460 6612039  13.2553   3.1516  2.01206578149971

Suivez COSMOS 1247 DEB en temps réel avec AllMySat

Download on the App Store